Wind_Speed
36 37 37 37 37 38 40 40 39 40 42 43 43 43 43 44 44 45 44 44 44 45 46 47 46 45 44 43 42 42 42 42 43 44 44 45 47 48 50 52 53 54 53 51 50 49 47 46 46 47 47 48 46 45 43 43 43 44 45 46 46 46 46 46 46 46 45 45 46 47 48 48 48 49 50 51 51 50 49 48 46 45 43 41 40 40
36 36 35 35 35 37 40 40 40 40 41 43 43 43 43 43 43 43 42 42 43 44 45 45 44 43 43 42 42 42 43 43 44 44 45 45 46 47 48 50 52 53 53 52 51 50 49 48 47 47 48 49 48 46 44 43 43 43 44 45 46 46 46 46 46 46 46 46 47 48 48 47 47 48 49 51 51 51 50 48 47 46 45 42 41 40
35 35 35 34 34 35 38 39 39 39 40 41 41 42 42 42 42 41 41 42 44 45 45 44 42 40 41 42 43 44 45 45 45 45 46 46 46 46 47 48 49 51 52 52 52 51 50 49 48 48 48 49 49 48 46 45 44 43 44 44 45 46 46 47 47 47 47 48 49 49 48 47 47 48 50 51 52 52 51 50 48 47 45 43 42 41
34 34 35 35 34 35 36 38 39 40 40 40 41 41 41 41 41 42 42 43 44 44 44 42 39 38 41 44 45 46 46 46 46 45 45 45 45 46 46 46 47 48 50 51 52 52 51 50 49 49 49 49 49 49 48 46 45 44 44 44 45 46 47 47 48 48 49 49 49 48 47 47 49 50 52 53 54 53 53 52 50 47 45 44 43 41
34 34 35 35 36 36 37 38 38 39 40 41 41 41 41 41 42 43 44 44 43 42 41 40 40 42 45 46 47 47 47 46 46 45 44 44 44 44 45 45 45 46 47 49 51 52 52 51 50 50 50 49 49 49 49 48 47 45 44 44 45 46 47 48 49 49 49 50 49 48 48 50 52 54 56 56 56 56 55 53 51 48 46 45 43 41
36 36 36 36 37 37 37 38 38 39 39 40 40 41 41 42 43 43 43 42 41 41 41 43 46 48 48 47 46 46 47 46 45 44 43 43 43 43 43 44 45 45 47 48 50 52 53 53 52 52 51 50 49 49 49 49 48 47 46 46 46 46 47 48 49 50 50 50 49 49 50 53 55 57 58 59 58 57 55 54 51 48 46 45 43 41
36 36 35 36 36 36 37 38 38 38 39 39 40 41 41 41 42 42 42 41 42 42 44 46 47 47 46 45 45 45 46 45 45 44 42 42 42 42 42 43 44 45 46 48 50 52 54 54 54 53 52 50 49 49 49 49 49 49 48 47 47 47 48 49 50 50 51 51 51 51 53 55 57 59 60 60 59 57 55 53 51 48 47 45 43 40
35 35 35 35 35 35 36 37 37 37 37 38 39 40 41 41 42 42 43 43 43 44 45 46 45 45 44 44 44 45 45 44 43 42 41 41 41 42 42 42 43 43 45 47 49 52 54 55 55 53 52 50 49 49 49 49 50 50 49 49 48 49 49 50 51 52 52 52 53 54 55 57 58 59 60 60 59 57 55 53 51 49 47 45 43 40
36 36 37 36 36 36 36 37 36 35 35 35 36 38 40 41 41 41 41 41 41 41 41 41 41 42 43 44 44 44 44 42 41 40 40 41 42 42 42 42 42 43 44 45 48 51 54 56 55 54 52 51 51 50 49 49 50 50 50 49 49 49 50 50 52 53 53 54 55 56 57 58 59 60 60 60 59 57 56 53 51 49 47 45 43 40
36 36 37 36 36 37 38 38 38 36 35 35 36 37 38 39 40 40 40 39 38 36 34 34 35 37 39 41 42 42 42 41 40 40 41 42 42 43 43 43 43 44 44 45 47 49 52 55 55 54 53 53 52 51 50 50 51 50 50 49 49 49 50 51 52 53 54 55 57 58 58 59 60 60 61 61 60 59 57 55 52 50 47 45 43 40
34 34 35 35 36 37 38 39 40 39 39 38 38 38 38 38 38 38 38 37 36 36 36 37 36 36 37 37 38 39 40 40 40 41 42 43 44 44 44 44 45 45 45 45 46 48 50 52 54 54 53 53 53 52 52 51 51 51 50 49 49 50 51 52 53 54 55 56 57 59 60 60 60 61 62 62 61 59 57 55 52 50 47 45 42 39
32 33 33 33 34 35 36 37 38 37 37 37 37 37 37 37 35 33 32 33 35 38 43 46 47 45 43 42 42 41 41 41 42 43 44 45 45 45 45 45 45 45 45 45 46 46 48 49 51 51 51 50 50 51 51 51 51 51 51 50 51 51 52 53 54 55 55 56 58 59 60 61 62 61 61 61 60 58 56 53 51 48 46 43 41 37
32 32 32 33 33 33 34 34 34 34 33 33 33 33 34 35 35 35 35 36 37 40 43 46 48 48 48 47 47 46 45 44 44 45 45 46 45 45 45 45 45 45 45 46 46 46 45 46 46 47 46 46 47 47 48 49 50 51 51 52 52 53 54 54 55 55 56 57 57 59 61 61 62 62 61 60 59 57 54 51 48 46 44 41 38 35
33 32 32 32 32 32 32 32 32 33 33 32 32 32 34 36 38 39 40 42 42 42 43 43 45 46 48 46 45 45 44 43 44 44 45 45 45 44 44 45 45 46 46 47 47 46 44 44 43 43 44 45 46 47 47 47 49 50 52 53 53 54 55 55 55 55 56 56 57 59 60 61 61 61 61 59 58 55 53 49 46 44 42 39 36 34
32 32 33 32 33 33 33 33 34 34 34 35 35 36 38 38 39 39 40 41 41 41 41 42 43 43 43 41 40 39 38 38 39 40 42 43 44 44 44 44 45 46 46 47 47 46 45 43 42 43 44 47 48 48 48 47 47 49 51 53 54 55 55 55 55 55 55 56 57 59 61 61 62 61 60 59 57 55 52 48 45 43 41 38 35 33
32 32 32 33 33 34 34 34 34 35 36 36 37 37 38 38 38 37 37 37 37 38 38 37 38 37 37 37 36 34 32 33 34 35 37 41 44 45 45 44 45 47 47 47 47 46 45 43 43 43 44 46 48 48 47 46 46 46 49 51 53 54 54 54 54 54 55 56 58 60 61 62 62 62 60 59 57 55 52 48 45 42 39 37 34 31
33 33 33 34 34 34 35 34 34 34 34 35 35 35 35 36 37 37 37 37 37 37 37 35 34 33 34 36 36 35 32 31 32 34 37 41 44 46 46 46 46 47 47 47 47 46 45 43 43 42 43 44 45 45 44 44 44 45 46 48 50 51 52 53 53 54 55 57 58 59 60 60 60 60 60 58 57 55 52 48 44 41 38 35 33 30
34 35 35 35 35 35 36 35 34 34 34 34 33 33 34 36 37 38 39 39 39 38 38 37 36 34 34 36 36 36 34 32 32 36 38 42 45 46 47 47 47 47 48 48 48 47 45 44 42 41 40 40 40 40 40 41 43 44 45 46 48 50 51 53 54 55 55 56 57 57 57 56 56 55 55 55 54 52 49 46 43 40 37 34 31 29
36 36 37 36 36 36 36 36 35 36 35 34 33 34 36 37 38 39 38 37 36 36 36 35 35 36 38 37 38 38 36 34 34 36 38 41 44 46 46 47 47 48 49 49 49 48 46 45 43 41 40 38 37 38 39 41 42 44 44 45 46 49 51 53 54 54 55 55 55 54 54 52 51 50 50 50 48 46 44 42 40 38 35 33 30 27
39 38 38 37 37 38 37 37 36 36 37 37 39 39 39 39 39 38 37 35 35 35 34 35 36 38 38 38 39 39 39 38 37 37 39 41 43 45 46 47 47 48 49 50 50 49 48 47 45 44 43 41 40 40 41 42 43 43 43 44 46 49 51 53 54 54 54 54 54 53 51 49 48 47 46 45 43 41 39 37 36 34 32 30 28 26
39 39 39 39 40 39 38 40 40 40 40 41 41 40 40 39 38 36 36 36 35 35 36 36 37 37 37 39 40 41 41 38 38 39 40 41 43 46 49 49 48 48 50 51 51 50 49 49 48 47 46 43 42 42 43 44 43 41 40 42 45 48 51 52 53 53 53 53 53 52 49 47 45 44 42 40 38 36 34 33 31 30 29 27 26 24
40 41 41 40 40 41 41 43 44 44 42 42 40 39 37 37 37 37 38 39 39 38 38 39 40 40 42 45 45 45 45 42 42 42 42 43 46 49 52 51 49 49 50 52 52 52 51 51 50 49 46 43 41 42 44 44 41 37 37 40 44 48 50 51 52 52 52 52 51 50 48 46 43 41 38 36 34 32 31 29 28 27 26 25 24 23
40 42 42 42 41 42 43 43 44 43 43 42 41 41 40 40 41 42 44 44 44 43 43 45 46 46 48 49 50 50 50 48 47 46 43 41 43 47 51 50 49 49 51 53 53 53 52 51 50 48 45 43 43 44 44 41 37 34 36 40 44 47 49 50 50 50 50 49 48 46 45 43 40 37 35 33 31 30 29 28 27 26 25 24 23 22
41 41 42 41 41 41 42 43 43 43 43 43 43 45 46 46 47 48 47 48 48 48 47 46 47 48 47 48 48 48 49 48 46 43 40 41 43 47 50 50 49 49 51 52 52 52 51 50 49 47 45 44 45 44 42 37 34 34 38 42 45 47 48 49 49 48 47 46 44 43 41 39 36 34 32 30 30 29 28 27 26 25 25 24 23 22
39 39 39 39 39 39 40 41 42 43 44 45 47 48 49 49 50 50 49 49 49 48 47 47 46 45 44 44 44 44 46 46 43 40 38 39 42 46 49 49 48 48 49 50 50 50 49 49 48 47 46 45 43 40 35 32 32 35 39 43 46 47 47 47 47 45 44 43 41 39 37 34 32 31 30 29 29 29 28 27 26 25 24 23 22 22
35 35 35 36 36 38 39 41 42 44 45 46 46 47 47 48 48 48 48 48 47 45 44 42 40 40 41 40 40 41 43 44 42 39 38 37 39 42 45 47 46 46 45 47 48 48 47 47 47 47 45 42 36 31 28 30 33 37 41 43 45 46 46 45 44 42 41 39 38 36 33 31 30 29 29 29 29 28 27 26 25 24 23 22 21 22
32 32 33 36 38 41 43 45 45 45 44 43 41 40 40 42 43 45 45 44 41 39 36 34 34 35 36 37 38 40 41 41 41 40 38 36 37 39 43 45 44 43 42 43 45 45 44 44 44 43 39 35 29 25 26 30 34 38 41 42 43 43 42 41 40 38 37 35 33 32 30 29 28 28 29 29 28 27 26 24 23 23 22 21 22 22
37 39 41 43 45 46 47 46 45 43 40 37 35 33 33 34 37 39 39 37 34 32 31 32 33 35 36 37 39 41 41 41 42 42 40 37 36 38 42 43 42 41 40 39 41 42 41 40 38 35 31 28 25 25 28 31 35 38 39 40 40 39 38 36 35 34 33 31 30 29 28 28 28 28 29 28 27 26 24 23 22 22 21 22 23 24
45 47 47 47 46 45 43 41 39 37 35 33 31 29 29 30 32 34 34 35 35 36 37 38 37 36 36 37 39 40 41 42 43 42 39 35 36 39 42 42 41 40 38 36 37 38 37 35 32 29 25 24 25 28 30 32 34 36 36 36 35 34 33 32 31 30 29 28 28 27 27 28 28 28 27 26 25 24 23 22 22 22 22 23 24 26
47 46 45 44 42 40 39 37 36 35 33 31 29 29 29 30 32 34 36 37 37 37 36 35 34 34 34 34 35 35 36 38 38 37 34 32 34 38 40 40 40 40 38 35 31 29 29 31 29 25 23 24 28 31 32 33 34 34 34 33 32 31 30 29 28 27 27 26 26 27 27 27 27 26 25 24 23 23 22 22 22 23 24 25 26 27
45 44 43 42 41 39 38 37 36 35 33 32 31 31 32 33 34 34 34 34 33 33 34 34 34 34 33 30 28 27 28 31 32 32 31 30 32 35 37 37 38 39 39 35 28 21 20 25 26 24 23 26 30 33 34 34 34 34 34 33 31 30 29 28 27 26 25 26 26 26 26 26 25 24 24 23 22 22 22 22 22 24 25 26 27 28
43 42 42 41 40 38 38 37 36 36 35 34 34 34 35 35 35 35 34 32 31 31 33 34 35 34 33 30 28 28 28 30 33 34 33 31 32 34 35 35 35 36 37 36 31 25 20 21 23 24 24 27 31 34 35 34 34 34 34 33 32 30 28 27 26 25 25 25 25 25 25 24 24 23 22 22 22 22 22 22 23 24 25 26 27 28
42 42 41 41 40 39 38 37 36 36 36 35 35 36 36 37 36 35 33 31 29 29 31 33 34 34 34 33 33 33 33 34 35 35 35 34 33 33 34 34 33 34 34 34 33 31 27 24 24 24 25 29 33 35 35 34 33 32 32 32 31 29 27 26 25 25 25 25 24 23 23 23 23 22 22 22 22 22 22 22 23 24 25 26 27 28
42 42 41 41 40 40 39 38 37 36 36 36 36 37 38 37 36 34 32 30 28 28 29 31 33 33 34 34 34 35 35 35 34 34 35 35 34 33 33 32 32 33 32 31 31 31 30 29 27 25 26 30 33 35 35 34 32 31 30 30 30 29 27 26 26 26 25 25 24 23 22 22 22 22 21 21 21 22 22 22 23 24 25 26 27 28
42 41 41 40 40 39 39 38 38 37 37 38 39 39 38 37 34 32 30 29 28 27 28 29 30 31 32 33 34 35 35 34 32 32 33 34 34 32 31 31 31 32 32 31 31 30 29 28 27 25 27 30 33 35 35 33 32 30 29 28 28 28 27 27 27 27 26 26 25 24 23 23 22 22 22 21 21 22 22 22 23 23 24 24 25 26
41 41 40 39 39 39 39 39 39 39 39 40 41 40 38 35 32 30 28 27 26 26 27 27 28 28 29 31 33 34 34 32 30 30 32 34 34 32 30 30 31 31 30 30 30 29 28 26 24 24 27 30 33 34 34 33 31 29 27 27 27 27 27 27 27 27 26 26 26 25 25 24 23 22 22 22 21 22 22 22 23 23 23 23 24 25
40 39 39 38 38 38 39 39 40 40 41 42 41 39 36 33 30 28 26 25 25 26 27 27 28 28 29 29 31 32 31 30 29 29 30 32 32 31 29 29 29 29 29 29 29 29 27 25 23 23 26 29 32 34 34 33 31 29 28 27 27 26 27 26 26 26 26 26 26 26 25 24 23 23 23 22 22 22 22 22 22 21 21 21 21 22
39 38 38 38 38 39 39 40 40 41 42 42 41 38 34 31 28 26 25 25 26 27 28 28 29 29 29 29 30 30 30 30 29 29 29 29 29 28 27 27 27 27 27 27 28 28 27 26 24 24 25 28 31 33 34 34 32 31 30 28 28 27 27 26 26 25 25 25 25 25 25 25 25 25 25 25 25 25 24 23 22 22 21 20 20 19
38 38 38 38 39 39 39 40 41 42 42 41 38 35 32 29 27 26 26 27 28 28 29 29 29 29 29 30 30 30 30 30 29 28 27 26 25 25 25 26 27 27 26 26 26 27 27 27 26 26 26 27 30 32 34 35 34 33 32 30 29 28 28 27 26 26 25 25 25 25 25 25 26 26 27 28 28 28 27 27 26 26 25 24 23 21
39 39 39 39 39 40 40 41 42 43 41 39 36 33 30 29 28 28 27 27 28 28 29 29 29 29 29 29 29 29 29 29 28 26 24 23 23 24 25 26 26 27 26 25 25 26 26 26 26 26 26 27 30 33 35 35 34 33 32 31 31 30 29 28 27 26 25 25 25 25 25 25 26 27 28 28 29 29 29 29 28 29 29 28 28 26
39 39 40 40 40 41 42 43 42 41 39 36 34 32 31 31 31 31 30 29 28 27 27 27 27 27 27 27 27 27 26 26 25 23 22 22 23 24 25 25 25 25 25 24 24 24 25 24 24 24 24 26 29 33 35 35 33 32 31 31 31 30 29 28 27 26 25 25 24 24 25 25 26 27 28 28 29 29 29 28 28 28 28 28 28 28
39 40 41 41 42 43 43 43 41 38 36 34 33 33 32 32 32 31 31 30 28 26 26 25 24 23 23 23 24 23 22 21 20 20 20 20 21 22 23 23 22 22 22 22 22 22 21 20 20 20 22 24 28 32 33 33 31 30 29 29 28 27 27 26 26 26 25 24 24 24 24 25 26 27 27 28 29 29 29 29 28 28 28 27 27 27
40 41 42 43 43 44 43 42 40 38 35 34 33 33 32 32 32 31 30 29 27 25 24 23 22 20 19 19 19 18 18 17 16 16 16 17 18 19 19 19 19 19 20 20 20 20 18 15 14 14 16 19 24 29 31 30 29 27 26 25 25 25 25 26 26 25 25 24 23 23 23 24 25 26 27 27 28 29 29 29 29 29 29 28 28 27
41 42 43 43 44 43 42 41 39 37 35 34 34 33 32 32 31 30 28 27 26 24 22 21 19 18 16 15 14 13 12 12 12 12 12 12 11 11 12 13 14 15 16 18 19 19 17 15 13 12 13 14 18 22 24 26 26 25 24 23 23 23 24 24 24 24 23 22 22 22 22 23 24 25 26 27 27 28 29 29 29 29 29 29 28 28
41 43 43 43 42 41 40 39 37 36 34 33 33 33 32 31 30 28 27 25 24 22 20 18 16 14 12 11 10 10 10 10 10 10 10 10 9 9 8 8 9 11 12 14 15 16 16 16 17 17 17 16 15 16 19 21 23 23 23 23 23 22 20 19 19 20 21 21 21 21 22 22 23 24 25 26 27 27 28 28 28 29 28 28 28 27
43 43 42 42 41 40 39 38 36 35 34 33 32 32 31 30 29 27 25 23 22 20 18 17 14 11 9 9 8 8 9 10 10 11 11 11 12 12 12 12 12 12 12 13 13 13 14 15 17 18 19 18 16 15 16 18 20 22 22 23 23 22 20 18 17 17 19 20 20 21 21 22 22 23 24 25 25 26 26 27 27 27 27 26 26 26
43 43 42 41 40 39 38 37 35 34 33 33 32 31 30 29 27 26 23 21 20 18 17 15 13 11 10 8 8 8 9 10 10 11 11 12 12 13 14 15 16 16 16 16 15 15 14 13 13 14 15 16 15 15 15 15 17 19 20 21 21 21 20 19 17 17 18 19 20 21 21 22 22 23 23 23 24 24 25 25 25 25 24 24 24 23
42 42 42 41 40 39 38 36 35 33 33 32 32 31 29 27 26 24 22 20 18 17 16 14 12 11 10 9 8 8 9 10 10 11 12 12 12 13 14 15 15 16 17 17 16 16 15 14 13 12 12 12 13 14 15 15 15 16 17 18 18 19 19 19 18 17 18 19 19 20 21 21 22 22 22 22 23 23 23 23 23 22 22 22 21 21
42 42 41 40 39 38 37 36 34 32 32 31 31 30 28 26 24 22 20 18 17 16 15 13 12 11 10 9 9 9 9 9 10 11 11 12 12 13 13 14 14 15 15 15 15 14 14 14 14 13 12 11 11 12 15 15 16 16 16 17 17 18 19 19 19 18 18 18 19 19 20 20 21 21 21 21 22 22 22 21 21 20 20 20 20 20
42 41 40 39 38 37 36 34 33 31 31 30 29 28 27 25 23 21 19 17 16 15 13 12 12 11 11 10 9 8 8 9 10 11 11 12 12 12 13 13 13 13 13 13 13 12 12 12 12 12 13 12 11 11 13 14 16 16 17 17 18 18 19 19 19 19 18 18 18 18 19 19 20 20 20 20 20 20 20 20 19 19 19 19 19 19
42 41 39 38 37 36 35 33 32 31 30 29 28 27 25 24 22 20 18 16 14 13 12 11 11 10 10 9 8 8 8 9 10 11 11 12 12 12 11 11 11 11 10 11 11 12 12 12 12 11 11 12 12 12 12 13 15 16 16 17 17 18 18 19 19 19 18 18 18 18 18 18 19 19 19 19 19 19 19 19 18 18 18 18 18 19
Wind_Direction
294 295 296 295 295 294 293 292 291 290 290 291 291 290 289 289 289 289 289 288 287 287 287 287 287 287 287 286 286 285 285 285 285 285 284 282 280 277 274 272 270 269 268 266 265 263 262 261 261 261 262 262 261 258 255 251 249 247 246 245 245 244 244 245 245 244 244 243 242 240 235 229 225 224 226 227 228 229 231 232 233 234 236 237 239 241
294 294 294 293 292 292 292 292 292 291 291 292 292 291 290 289 289 290 290 290 289 289 289 289 288 288 288 288 287 287 287 287 287 287 286 285 282 280 278 275 273 270 268 266 265 263 262 261 260 260 260 261 261 259 257 254 251 249 247 246 245 245 245 244 244 244 243 243 243 240 233 226 222 221 222 225 227 228 229 230 231 233 235 236 238 240
296 295 294 293 292 291 291 292 293 292 292 292 292 291 291 290 289 289 289 289 290 290 289 286 285 287 289 290 289 288 287 287 288 288 288 286 285 283 281 279 277 274 270 267 265 263 262 260 260 260 260 260 260 258 257 255 252 250 248 247 246 245 245 244 243 243 243 243 242 237 230 222 220 221 222 224 226 227 229 229 231 232 235 236 238 239
296 295 294 295 294 292 291 292 293 293 292 292 292 292 291 289 288 287 288 290 290 289 284 279 278 283 288 289 289 287 287 287 288 288 288 287 286 285 283 282 280 277 274 270 266 263 261 259 259 259 260 260 259 258 255 254 253 251 249 247 246 245 244 243 243 242 242 242 238 232 225 220 219 220 223 224 226 227 229 230 231 233 235 236 238 239
295 294 295 295 295 293 292 292 292 292 293 292 292 291 290 289 288 288 289 291 290 287 281 277 278 283 287 288 287 286 287 287 288 288 288 287 287 286 285 284 282 280 277 273 269 265 261 259 258 259 259 260 259 257 255 253 252 251 249 248 246 245 244 243 242 242 242 240 235 227 221 218 219 222 224 226 227 229 230 231 233 235 236 237 237 238
293 293 294 294 294 293 293 292 292 292 292 292 291 291 291 290 290 290 290 290 289 286 282 282 284 286 288 287 287 287 287 288 289 289 288 288 287 287 286 285 284 282 280 277 273 269 264 260 259 259 259 259 258 257 254 253 252 251 250 248 247 245 244 243 242 242 241 239 233 226 221 220 222 225 227 228 229 230 231 233 234 236 237 237 237 237
292 293 294 294 293 292 292 292 291 292 292 292 292 292 292 292 291 290 289 288 287 286 286 286 287 288 288 287 287 288 288 289 290 289 289 288 288 288 287 287 285 284 282 280 277 273 268 262 260 259 259 258 258 257 254 252 251 251 250 249 248 246 245 244 243 242 240 236 231 226 223 223 225 227 229 229 231 233 233 234 235 236 236 236 235 235
296 297 296 295 294 294 293 291 291 291 291 291 291 291 292 292 291 290 290 289 288 287 287 287 287 287 286 286 286 287 289 290 291 291 291 290 289 289 289 288 288 286 284 282 279 276 271 265 261 260 259 259 258 256 253 251 250 250 250 250 250 248 246 243 242 241 239 234 230 227 225 226 227 229 230 231 233 235 235 235 236 236 235 235 234 234
301 300 299 298 297 296 295 293 292 291 290 290 289 290 290 290 290 290 290 288 287 285 284 283 282 282 283 284 286 287 289 291 292 294 294 294 293 292 290 290 289 288 286 283 280 277 273 268 263 261 260 259 257 255 253 251 249 249 250 251 251 250 247 243 241 239 237 234 231 228 227 228 229 230 231 232 235 236 236 236 236 235 234 234 234 233
298 297 297 297 296 296 296 295 295 294 294 293 293 292 291 290 289 288 286 284 284 284 283 281 280 280 281 282 283 285 287 289 292 295 296 297 296 294 292 291 290 288 287 285 282 278 274 270 266 263 261 260 257 255 252 250 249 249 249 251 252 252 249 244 240 239 238 236 233 230 229 229 230 231 232 233 234 236 237 236 235 234 233 232 233 232
296 295 295 295 294 294 294 294 294 295 296 297 296 295 293 291 288 285 283 283 286 289 290 290 289 288 286 286 285 285 285 286 289 293 295 297 297 296 294 292 290 289 288 286 284 280 276 272 268 265 263 261 258 255 253 251 250 249 249 251 253 253 251 246 242 239 239 238 235 233 231 231 231 232 233 234 234 235 236 235 233 232 231 231 231 230
297 296 296 295 294 294 293 293 293 294 295 296 295 294 293 292 290 288 287 288 290 293 293 293 293 292 291 291 291 290 288 287 288 290 293 294 295 295 294 292 291 290 290 289 287 284 279 274 270 267 265 263 260 257 254 252 251 250 250 252 253 254 253 248 243 240 240 239 237 234 233 232 232 232 232 233 234 234 233 232 230 229 228 227 227 226
298 297 297 296 295 294 294 294 295 295 295 294 293 293 293 294 294 294 294 294 293 293 294 294 293 292 292 291 291 291 290 289 289 289 290 290 291 292 292 291 291 291 291 290 289 286 281 276 271 268 267 266 264 262 258 255 252 251 250 252 253 254 253 248 244 242 242 241 239 236 233 232 231 231 231 231 231 232 231 229 228 226 225 224 223 222
299 299 298 297 295 295 295 296 297 296 296 295 295 295 295 295 295 295 295 294 293 293 294 293 293 293 293 292 291 291 291 290 290 289 288 288 289 289 290 290 291 292 292 290 288 286 282 276 270 267 266 266 267 267 266 262 257 252 250 250 252 253 252 249 246 244 243 242 239 236 233 231 230 229 229 229 230 230 229 227 226 224 223 222 221 220
300 300 299 297 296 295 295 296 295 295 295 295 295 296 296 296 295 294 293 291 291 292 293 292 291 291 290 290 291 291 291 291 290 289 288 288 288 289 290 290 291 292 291 289 288 285 281 274 268 265 264 264 266 268 271 270 265 258 252 250 250 250 251 249 248 246 244 242 239 236 233 231 230 229 228 229 229 229 228 226 224 223 223 223 222 220
299 298 297 296 295 295 294 294 293 293 293 293 294 295 295 295 295 294 293 291 292 293 292 290 289 289 289 290 291 291 291 290 289 287 288 288 290 290 290 290 290 291 290 288 287 285 281 274 268 265 265 266 267 268 271 274 272 265 256 251 249 249 250 250 249 247 245 242 238 235 232 230 229 229 228 229 229 229 228 225 224 223 223 223 223 221
297 296 295 294 294 294 294 294 294 294 294 295 295 295 295 295 295 296 296 296 297 296 295 293 292 292 292 292 292 291 290 288 287 287 287 288 290 292 292 291 289 289 289 288 287 285 281 274 269 267 269 271 271 270 271 275 275 271 262 254 250 248 249 249 249 247 244 239 235 231 228 226 226 226 226 226 226 226 225 224 223 223 223 223 222 219
295 294 294 293 293 293 294 295 296 296 297 297 297 297 297 296 296 296 296 296 296 295 293 293 291 290 290 290 290 290 290 288 287 286 286 287 290 293 293 291 289 288 288 288 287 285 282 276 271 270 273 276 275 272 272 274 276 274 267 259 253 250 248 247 245 242 238 233 228 224 221 220 220 220 220 220 221 221 221 220 221 222 223 222 221 217
293 293 292 292 292 293 294 294 295 295 296 297 298 298 298 298 297 297 295 294 292 290 289 288 287 287 286 285 287 290 292 292 290 287 285 285 288 291 291 290 288 288 287 287 287 286 283 278 274 273 275 277 276 274 274 275 276 274 269 262 255 250 246 243 239 235 229 224 220 217 216 215 215 215 215 215 216 216 216 217 219 220 221 220 218 215
292 292 291 291 292 293 293 293 294 295 295 296 297 297 298 299 299 298 297 294 293 292 291 291 290 288 288 287 289 291 293 294 293 290 286 286 287 288 289 287 286 285 285 286 287 286 283 280 277 275 275 276 278 278 278 278 276 273 267 260 252 246 240 235 231 226 221 217 215 213 213 212 211 211 212 213 213 213 213 214 216 218 218 216 213 210
291 292 293 295 294 292 291 293 296 297 297 298 297 297 296 297 297 297 296 295 295 295 295 294 292 290 289 289 290 290 291 292 292 290 287 286 286 287 286 285 284 283 283 285 286 285 282 280 278 277 277 278 280 281 280 279 276 271 262 253 245 238 232 227 223 219 216 214 212 211 210 209 210 211 212 212 212 211 210 211 212 213 212 210 208 206
292 293 297 299 297 294 293 295 298 300 300 298 295 293 292 293 293 293 294 294 294 293 292 290 288 287 286 286 285 285 285 286 286 286 285 284 283 283 284 283 282 280 281 283 284 284 282 280 279 278 279 280 281 281 280 278 273 264 253 243 234 228 223 220 217 214 212 211 209 208 207 207 209 210 211 210 209 209 209 208 208 208 207 205 203 202
295 296 298 300 299 297 296 297 299 299 299 296 293 292 290 290 290 291 292 292 292 291 290 290 290 290 289 287 286 285 285 284 283 282 281 279 278 279 281 280 279 278 278 280 281 281 280 278 278 278 279 280 280 279 277 274 266 254 242 233 225 220 217 214 212 210 209 207 205 204 204 206 207 208 208 208 208 208 207 205 205 205 203 200 199 200
299 298 299 299 298 298 297 296 296 296 296 295 293 293 292 291 291 291 291 292 292 292 291 291 291 291 290 289 289 289 289 287 286 283 278 275 276 278 280 278 276 275 276 277 277 276 276 276 276 277 278 277 276 275 272 266 255 242 232 224 219 215 212 210 208 207 205 203 202 202 203 205 206 206 207 208 208 207 205 204 204 203 199 197 197 199
301 299 298 298 297 296 295 295 294 294 293 293 292 292 291 291 291 291 291 291 291 291 290 289 287 286 286 287 287 288 290 289 287 283 278 275 276 279 280 278 275 273 273 273 273 272 272 272 273 274 274 273 271 268 262 253 242 231 223 218 214 211 209 208 206 204 202 201 201 202 204 205 205 206 207 209 209 206 204 203 202 199 196 196 197 200
303 300 298 296 295 294 293 292 292 292 292 291 290 290 290 290 290 290 290 289 288 288 287 285 283 283 284 285 286 287 288 288 287 284 279 277 277 278 279 278 274 270 268 268 268 268 268 268 269 269 268 266 262 255 246 237 229 222 217 213 210 208 207 205 204 202 201 201 202 204 206 206 206 207 210 210 208 204 201 200 197 194 194 195 198 202
304 300 298 296 296 295 294 294 294 294 293 292 291 290 290 290 289 288 287 287 287 286 285 283 284 285 286 287 286 286 287 287 286 285 283 280 277 276 276 275 271 267 263 263 263 264 263 262 262 262 261 257 249 237 227 222 218 215 211 209 207 206 204 203 201 200 200 201 203 205 206 207 208 210 211 209 205 201 198 195 192 191 192 196 200 203
303 301 300 300 299 299 299 300 300 300 300 300 299 298 296 292 289 286 285 287 289 291 292 291 290 290 289 288 287 287 287 286 285 284 284 281 276 272 272 272 268 263 258 257 258 259 257 256 255 254 252 245 232 219 212 210 209 208 207 205 204 202 200 198 197 197 199 202 205 206 207 209 211 211 209 205 200 196 193 189 188 189 192 197 202 206
303 303 303 304 305 305 306 306 306 306 306 306 305 303 299 293 290 288 289 290 293 295 295 293 291 289 288 287 288 288 288 286 285 285 284 279 273 270 271 269 264 259 255 251 252 252 252 250 248 246 240 231 219 208 203 202 203 202 201 200 198 195 193 192 193 196 201 205 207 207 208 209 210 208 204 199 195 191 188 186 187 190 195 200 206 209
307 308 309 310 311 312 312 312 312 311 310 307 303 299 296 293 291 290 291 292 295 297 295 292 289 288 288 289 290 290 288 286 286 286 284 277 271 270 271 266 261 257 253 247 244 243 245 247 245 239 229 220 210 204 200 198 198 197 195 193 191 191 191 193 196 201 205 207 207 206 206 207 205 201 197 192 189 187 186 186 189 194 199 205 209 211
315 316 317 316 316 316 317 316 315 314 312 308 304 301 300 298 298 297 297 298 300 300 297 294 291 290 289 289 288 287 286 288 288 287 286 279 273 271 269 263 258 256 253 246 238 233 238 242 241 235 223 212 206 202 200 198 196 195 194 192 191 193 196 199 203 206 206 205 203 202 201 200 196 193 189 187 185 186 186 188 192 199 205 209 211 212
321 321 321 320 319 319 318 318 317 316 314 312 310 309 307 305 304 302 302 302 303 303 301 298 295 293 291 287 283 281 282 285 287 287 286 282 277 273 269 262 255 251 251 247 240 234 234 233 234 229 216 206 202 201 200 199 197 196 196 195 195 197 200 202 203 202 200 198 196 195 194 191 188 186 185 184 186 187 189 191 196 203 210 212 212 212
323 322 321 321 320 319 318 318 317 316 315 314 312 310 309 306 304 302 301 300 302 304 305 303 299 296 293 289 285 282 282 284 285 285 285 282 278 273 268 260 252 246 244 242 239 237 236 234 231 223 210 202 200 200 200 200 200 199 200 200 200 200 200 199 197 195 192 189 187 186 185 185 184 183 184 185 187 190 192 195 201 208 213 215 214 212
322 322 321 321 320 320 319 318 317 316 315 313 311 309 308 306 304 302 300 299 301 303 306 305 302 298 295 292 289 287 287 287 287 286 285 282 277 272 265 257 248 241 237 235 234 234 233 234 230 218 204 200 199 199 201 201 201 203 204 204 204 202 199 196 194 191 189 185 182 180 180 182 183 184 185 188 190 193 195 199 205 211 216 216 214 212
321 321 321 321 320 319 318 318 317 316 314 313 311 310 309 307 305 303 301 301 302 303 305 306 304 302 298 294 291 289 290 292 292 291 288 283 278 271 262 253 246 240 235 233 232 230 227 228 226 215 201 197 197 198 200 201 201 202 203 204 203 201 199 198 195 192 190 186 183 181 181 181 182 184 187 190 193 196 199 202 207 212 215 216 215 213
321 320 320 319 319 318 317 317 316 315 314 314 313 312 311 309 307 305 304 304 306 307 307 306 306 306 303 298 293 291 293 296 297 295 290 284 278 269 258 250 246 243 237 234 232 229 223 219 217 211 201 194 194 196 198 199 198 197 196 197 197 197 198 198 197 194 190 186 183 181 181 181 183 185 188 192 196 199 203 206 208 210 213 215 216 216
320 319 319 318 318 317 317 317 316 315 315 315 315 314 313 312 310 308 309 311 313 314 313 312 311 310 307 304 300 297 298 301 301 297 290 283 276 267 255 250 247 245 240 235 232 227 220 211 204 199 196 194 192 192 193 193 192 190 187 188 189 190 192 194 194 191 188 184 182 181 181 181 183 185 188 191 195 200 204 207 208 208 210 214 218 221
320 319 318 318 318 318 317 316 315 315 315 316 317 316 315 314 314 316 318 320 320 319 317 314 312 310 307 305 303 302 302 302 299 294 286 278 270 260 250 246 244 243 242 238 234 228 218 206 196 190 190 193 194 192 189 187 185 183 184 186 186 187 188 189 189 188 187 185 183 182 182 183 184 186 189 191 194 197 199 201 202 203 205 209 215 223
320 319 318 318 318 317 316 316 316 316 317 318 317 317 316 317 320 323 326 326 324 320 316 313 310 307 305 302 301 301 300 298 292 285 277 267 257 248 242 239 238 238 238 236 233 227 219 210 202 196 192 191 191 189 187 185 183 183 184 185 186 186 187 188 188 188 188 187 186 186 187 188 189 191 193 196 198 200 200 200 198 198 198 199 203 210
320 319 318 318 317 317 316 316 317 318 319 318 317 317 319 322 326 328 329 327 323 318 314 310 306 303 301 299 297 296 294 290 284 275 263 252 242 236 234 233 234 234 233 230 226 223 218 213 209 207 204 196 189 185 183 183 184 186 185 183 183 185 187 188 188 189 190 190 190 191 192 194 195 197 199 201 204 206 207 206 204 202 201 200 200 201
320 319 319 318 318 318 318 318 319 320 319 319 320 322 325 329 330 330 328 325 319 314 308 304 300 296 294 292 290 288 285 280 273 263 251 240 232 229 228 230 232 233 231 226 221 218 216 213 211 210 208 200 192 185 182 183 185 187 186 185 185 186 187 188 189 190 191 192 194 195 197 199 201 203 205 206 208 211 213 214 213 212 211 211 209 207
321 320 319 319 319 319 320 320 321 321 321 322 324 327 329 331 330 327 324 320 315 308 302 296 291 287 284 281 280 279 275 268 259 250 240 232 227 225 226 229 232 234 232 225 218 213 211 211 210 209 205 197 189 183 181 182 184 186 187 187 186 185 186 188 190 191 193 195 197 199 202 204 206 208 209 209 210 212 215 216 218 218 219 220 220 221
322 321 321 321 320 321 321 322 322 323 324 325 326 328 330 330 328 325 320 315 310 304 297 291 285 280 275 272 270 268 264 257 248 238 230 227 226 227 229 232 236 238 236 225 213 203 198 196 195 195 193 191 186 182 179 180 181 184 186 187 186 185 186 189 191 193 195 197 199 202 204 207 208 210 211 212 213 214 215 216 218 221 222 224 226 227
323 323 323 322 322 322 323 323 323 325 326 326 327 328 329 329 327 323 317 312 306 300 293 286 281 276 270 263 257 252 246 240 232 223 215 213 215 219 224 228 231 232 230 220 205 192 182 173 164 158 161 171 177 178 178 178 179 181 184 187 188 189 190 191 192 194 196 199 201 204 206 207 208 210 211 213 214 215 217 218 220 222 224 226 227 229
324 324 323 323 322 322 322 322 323 325 326 327 328 328 329 328 325 320 315 308 302 295 288 281 274 267 258 250 242 230 216 210 205 197 189 181 175 173 180 191 199 204 205 201 194 184 173 161 151 146 146 149 158 168 174 176 178 180 183 186 190 193 195 196 196 198 200 201 203 205 206 208 209 210 211 213 215 217 219 220 222 224 226 227 228 230
325 324 324 323 322 322 322 323 324 326 327 328 329 329 328 326 323 318 313 306 298 290 282 274 266 256 242 231 220 207 193 185 180 174 168 161 157 154 156 159 162 165 167 167 166 164 160 153 148 145 145 145 148 157 168 175 179 182 184 187 190 192 194 196 199 202 203 205 206 207 208 209 210 212 213 215 217 219 221 222 224 226 228 229 230 231
325 324 324 323 323 323 323 325 326 327 328 329 330 329 328 324 320 316 310 304 296 286 277 269 259 247 232 217 202 188 178 172 167 164 161 158 156 156 156 155 155 153 150 147 144 142 141 142 142 143 144 146 150 155 162 171 178 183 185 187 189 192 194 197 200 202 205 207 208 209 210 211 213 214 216 218 219 221 223 225 227 228 230 231 232 233
325 325 324 324 324 324 325 326 328 329 329 329 329 329 326 322 317 312 307 301 293 283 273 264 255 242 225 209 195 186 179 169 163 161 159 157 156 155 153 149 147 145 143 141 139 138 137 138 141 146 152 156 159 161 161 166 172 178 183 186 189 192 196 199 202 205 207 208 210 211 213 214 215 217 219 220 222 224 225 227 228 230 231 232 232 232
326 326 325 325 325 325 326 328 330 330 330 330 329 327 324 320 316 310 304 298 290 282 273 265 255 240 222 205 196 189 181 171 163 157 153 150 147 143 140 137 134 133 133 133 134 136 139 142 146 150 154 160 166 168 166 167 170 175 180 184 189 193 197 200 204 207 210 211 213 214 215 216 217 219 220 222 224 226 227 228 229 230 231 232 232 231
327 327 326 326 326 327 328 330 331 331 331 330 328 325 321 318 314 310 304 298 289 281 275 267 256 239 221 207 195 184 173 162 153 146 140 136 132 128 126 125 125 126 128 131 134 138 141 144 147 150 153 155 159 165 170 173 176 178 181 185 189 193 197 201 205 208 211 214 215 217 218 219 220 220 221 222 224 226 227 228 228 229 229 230 229 229
328 328 328 328 328 329 330 332 332 332 331 330 327 323 319 315 312 308 304 298 290 283 277 269 256 237 219 205 189 172 158 146 137 130 126 123 121 119 119 121 123 126 132 138 143 145 146 145 142 143 149 153 157 161 167 174 180 183 185 188 191 195 198 202 206 209 212 215 217 219 220 221 222 222 222 223 224 225 227 227 227 227 228 228 228 228
Height
1321 1319 1319 1318 1317 1315 1312 1312 1312 1311 1308 1307 1307 1306 1304 1304 1303 1302 1301 1301 1300 1299 1298 1297 1296 1295 1295 1294 1294 1294 1293 1293 1292 1292 1292 1292 1292 1292 1292 1292 1292 1291 1291 1291 1292 1292 1293 1293 1294 1294 1294 1294 1295 1296 1297 1298 1299 1300 1302 1302 1303 1305 1306 1307 1308 1309 1311 1312 1313 1314 1315 1316 1317 1318 1319 1319 1320 1322 1323 1324 1325 1326 1327 1328 1330 1331
1319 1317 1316 1315 1314 1312 1309 1308 1308 1308 1306 1304 1303 1302 1302 1300 1299 1298 1297 1297 1296 1295 1294 1293 1292 1291 1290 1290 1290 1290 1289 1289 1289 1288 1288 1287 1287 1287 1287 1287 1287 1287 1287 1287 1287 1288 1289 1289 1290 1290 1289 1290 1291 1292 1293 1294 1295 1297 1297 1298 1300 1301 1302 1303 1304 1306 1307 1308 1309 1310 1311 1312 1314 1315 1315 1316 1317 1317 1319 1320 1321 1322 1323 1325 1326 1327
1317 1314 1312 1312 1312 1310 1307 1305 1305 1305 1303 1302 1300 1300 1299 1297 1296 1295 1294 1293 1292 1292 1290 1289 1288 1287 1287 1286 1286 1286 1285 1285 1285 1285 1284 1283 1283 1283 1282 1282 1283 1283 1283 1283 1283 1284 1284 1285 1286 1286 1285 1285 1286 1287 1288 1290 1291 1292 1293 1294 1296 1297 1298 1299 1300 1302 1302 1304 1305 1306 1307 1309 1310 1311 1311 1312 1312 1313 1314 1316 1317 1318 1319 1321 1323 1324
1315 1312 1310 1309 1308 1307 1304 1303 1302 1301 1300 1299 1298 1297 1296 1295 1293 1292 1291 1290 1289 1288 1287 1286 1285 1284 1283 1282 1282 1282 1282 1282 1281 1281 1280 1280 1279 1279 1278 1278 1278 1278 1279 1279 1279 1279 1280 1280 1281 1281 1281 1281 1281 1282 1284 1285 1287 1288 1289 1290 1291 1292 1294 1295 1296 1297 1298 1300 1301 1302 1303 1305 1306 1307 1307 1308 1308 1309 1310 1312 1313 1314 1316 1317 1319 1321
1313 1311 1308 1307 1305 1303 1301 1301 1299 1298 1297 1296 1295 1294 1293 1292 1290 1289 1287 1286 1285 1284 1284 1283 1282 1281 1280 1279 1278 1278 1278 1278 1277 1277 1277 1276 1275 1275 1275 1274 1274 1274 1274 1274 1274 1275 1275 1276 1277 1277 1277 1277 1277 1278 1279 1280 1282 1283 1285 1286 1287 1288 1289 1290 1292 1292 1294 1296 1297 1297 1299 1301 1302 1302 1303 1304 1304 1305 1306 1307 1309 1311 1312 1314 1316 1317
1311 1309 1307 1305 1303 1301 1298 1297 1297 1296 1294 1293 1292 1291 1290 1289 1287 1286 1284 1283 1282 1281 1280 1279 1279 1278 1277 1275 1274 1274 1273 1273 1273 1273 1273 1272 1272 1271 1271 1270 1270 1270 1270 1270 1270 1270 1270 1271 1272 1273 1273 1273 1273 1274 1275 1276 1277 1279 1280 1281 1282 1284 1285 1286 1287 1288 1290 1291 1292 1294 1295 1296 1297 1297 1299 1300 1300 1301 1302 1303 1305 1307 1308 1310 1312 1314
1308 1306 1305 1303 1301 1299 1297 1295 1294 1293 1292 1290 1288 1287 1286 1285 1284 1283 1282 1281 1279 1278 1276 1275 1274 1272 1272 1271 1270 1270 1269 1269 1269 1269 1269 1268 1268 1267 1267 1267 1266 1266 1266 1265 1266 1266 1266 1267 1268 1269 1270 1270 1270 1270 1271 1272 1273 1274 1275 1277 1278 1279 1280 1282 1282 1284 1285 1286 1287 1289 1290 1291 1292 1293 1295 1296 1297 1297 1298 1300 1301 1303 1305 1307 1308 1310
1306 1304 1303 1301 1299 1296 1294 1292 1292 1291 1290 1288 1287 1285 1283 1282 1281 1280 1278 1277 1276 1274 1272 1270 1269 1267 1267 1266 1266 1266 1265 1265 1265 1265 1264 1264 1264 1263 1263 1263 1263 1262 1262 1262 1262 1262 1262 1262 1263 1264 1265 1266 1266 1266 1267 1267 1268 1270 1271 1272 1273 1275 1276 1277 1278 1280 1281 1282 1282 1284 1285 1287 1288 1290 1291 1292 1293 1294 1295 1297 1298 1299 1301 1303 1305 1307
1306 1303 1301 1300 1298 1295 1292 1290 1289 1289 1288 1287 1285 1283 1281 1279 1277 1276 1275 1274 1272 1271 1269 1267 1265 1264 1263 1262 1262 1262 1262 1262 1261 1261 1261 1260 1260 1259 1259 1259 1259 1259 1258 1258 1257 1257 1257 1258 1259 1260 1261 1262 1262 1262 1262 1263 1264 1265 1267 1268 1269 1270 1272 1273 1274 1275 1276 1277 1278 1279 1281 1282 1284 1286 1287 1288 1289 1290 1292 1293 1294 1296 1297 1299 1301 1303
1305 1302 1300 1298 1296 1295 1292 1288 1286 1286 1286 1284 1283 1281 1280 1278 1276 1274 1272 1270 1269 1268 1267 1265 1263 1262 1260 1259 1259 1258 1258 1258 1258 1257 1257 1257 1256 1256 1255 1255 1255 1254 1254 1254 1253 1253 1253 1253 1254 1255 1257 1257 1258 1258 1258 1259 1260 1261 1262 1264 1265 1266 1267 1269 1270 1271 1272 1273 1274 1275 1276 1278 1280 1282 1283 1284 1285 1286 1288 1289 1291 1292 1294 1295 1297 1299
1302 1301 1298 1296 1293 1292 1290 1287 1285 1283 1283 1282 1280 1279 1278 1277 1275 1272 1269 1267 1266 1265 1264 1263 1262 1261 1259 1257 1256 1256 1255 1254 1254 1254 1254 1253 1253 1252 1252 1251 1250 1250 1250 1250 1249 1249 1249 1249 1250 1251 1252 1253 1253 1254 1255 1256 1257 1257 1259 1260 1261 1262 1263 1264 1266 1267 1268 1269 1270 1271 1272 1274 1276 1277 1279 1280 1281 1282 1284 1286 1287 1288 1290 1292 1294 1296
1300 1298 1296 1293 1291 1289 1287 1285 1283 1282 1281 1279 1277 1276 1274 1274 1273 1271 1268 1265 1263 1262 1261 1260 1259 1258 1257 1255 1254 1253 1253 1252 1251 1250 1250 1249 1249 1248 1247 1247 1246 1246 1246 1245 1245 1245 1245 1245 1246 1247 1247 1248 1249 1250 1251 1252 1253 1254 1255 1256 1257 1258 1259 1260 1261 1262 1264 1265 1266 1267 1269 1270 1271 1273 1274 1276 1277 1279 1281 1282 1284 1285 1287 1288 1290 1292
1298 1296 1294 1291 1289 1287 1285 1282 1281 1279 1278 1277 1275 1273 1271 1270 1270 1269 1267 1264 1262 1260 1258 1256 1254 1253 1253 1252 1251 1250 1249 1248 1247 1247 1246 1245 1245 1245 1244 1243 1242 1242 1242 1241 1241 1241 1241 1242 1242 1243 1244 1245 1246 1247 1247 1248 1249 1251 1251 1252 1253 1254 1254 1255 1257 1258 1260 1261 1262 1263 1265 1266 1267 1268 1269 1271 1273 1275 1277 1279 1281 1282 1283 1285 1287 1289
1296 1294 1292 1289 1287 1285 1283 1282 1280 1277 1276 1275 1273 1272 1270 1268 1268 1267 1265 1262 1259 1258 1257 1254 1251 1248 1247 1247 1247 1247 1246 1245 1244 1243 1242 1241 1241 1241 1241 1240 1239 1238 1238 1238 1237 1237 1237 1238 1239 1239 1240 1241 1242 1242 1244 1245 1246 1247 1247 1248 1249 1250 1250 1251 1253 1254 1256 1257 1258 1259 1260 1262 1263 1264 1265 1267 1268 1271 1273 1275 1277 1279 1281 1282 1284 1286
1294 1292 1290 1287 1285 1283 1282 1280 1278 1276 1274 1273 1271 1270 1268 1267 1265 1264 1262 1259 1257 1255 1253 1251 1247 1245 1243 1243 1243 1243 1242 1241 1240 1239 1238 1237 1237 1237 1237 1237 1236 1235 1235 1234 1233 1233 1234 1235 1235 1236 1236 1237 1237 1238 1239 1240 1241 1242 1243 1244 1245 1246 1247 1247 1249 1251 1252 1253 1254 1255 1256 1257 1258 1260 1261 1263 1265 1267 1270 1272 1274 1276 1278 1279 1281 1283
1293 1291 1288 1285 1283 1281 1279 1278 1277 1274 1272 1270 1269 1268 1266 1264 1262 1261 1260 1257 1254 1252 1250 1248 1245 1242 1239 1239 1240 1240 1240 1238 1237 1236 1235 1233 1232 1233 1234 1234 1233 1232 1231 1231 1230 1230 1231 1232 1232 1232 1233 1233 1233 1234 1235 1235 1236 1237 1239 1240 1241 1242 1243 1244 1245 1247 1248 1250 1251 1251 1252 1253 1254 1256 1257 1259 1261 1263 1266 1268 1270 1272 1275 1277 1279 1281
1291 1289 1286 1284 1281 1278 1276 1275 1274 1272 1270 1268 1267 1266 1264 1263 1261 1259 1257 1255 1253 1251 1248 1247 1244 1241 1237 1234 1235 1237 1237 1236 1235 1233 1232 1230 1229 1229 1230 1230 1229 1228 1227 1227 1227 1227 1227 1228 1229 1229 1229 1229 1230 1230 1231 1231 1232 1233 1235 1236 1237 1238 1239 1240 1242 1243 1244 1246 1247 1248 1249 1250 1251 1252 1253 1255 1256 1258 1261 1264 1267 1269 1272 1274 1276 1278
1288 1286 1284 1281 1278 1276 1274 1272 1271 1269 1268 1266 1265 1263 1262 1261 1259 1257 1255 1253 1252 1249 1247 1245 1243 1240 1237 1233 1232 1232 1234 1233 1232 1230 1229 1227 1225 1226 1226 1226 1225 1225 1224 1223 1223 1224 1224 1225 1225 1226 1226 1226 1227 1227 1227 1227 1228 1230 1231 1232 1233 1234 1235 1237 1238 1239 1241 1242 1243 1245 1246 1247 1248 1250 1251 1252 1253 1255 1257 1260 1263 1266 1268 1271 1273 1276
1285 1283 1282 1279 1276 1274 1272 1270 1269 1267 1266 1265 1263 1262 1259 1257 1256 1255 1253 1251 1249 1247 1245 1242 1240 1237 1236 1232 1230 1231 1232 1232 1230 1228 1226 1223 1222 1222 1222 1222 1222 1221 1221 1220 1220 1220 1221 1221 1222 1222 1223 1224 1224 1224 1224 1225 1225 1226 1227 1229 1230 1231 1232 1233 1235 1236 1237 1239 1240 1242 1243 1244 1246 1247 1248 1250 1251 1252 1255 1257 1260 1263 1266 1268 1271 1273
1282 1280 1279 1277 1274 1272 1269 1267 1267 1266 1264 1263 1262 1260 1257 1254 1252 1251 1250 1248 1247 1245 1242 1240 1237 1235 1233 1231 1229 1229 1230 1230 1229 1227 1224 1222 1220 1219 1219 1219 1218 1217 1217 1216 1216 1217 1217 1218 1218 1219 1220 1220 1221 1221 1221 1221 1222 1222 1224 1225 1227 1228 1229 1230 1231 1232 1234 1235 1237 1238 1240 1242 1244 1245 1247 1248 1249 1251 1253 1255 1257 1260 1263 1265 1268 1271
1279 1277 1275 1274 1272 1270 1267 1264 1263 1263 1262 1261 1259 1257 1255 1252 1251 1249 1247 1246 1244 1242 1240 1238 1236 1233 1232 1229 1227 1227 1228 1228 1227 1225 1222 1220 1217 1216 1216 1216 1215 1214 1213 1212 1213 1214 1214 1214 1214 1215 1216 1217 1217 1218 1217 1217 1218 1219 1221 1223 1224 1226 1226 1227 1228 1229 1230 1231 1233 1235 1237 1239 1241 1243 1245 1247 1248 1250 1252 1253 1255 1258 1261 1263 1266 1268
1277 1273 1271 1271 1270 1268 1265 1262 1260 1260 1259 1259 1257 1255 1253 1251 1249 1246 1244 1243 1241 1239 1237 1235 1232 1230 1229 1227 1224 1224 1225 1226 1225 1223 1221 1218 1214 1212 1213 1212 1212 1212 1210 1209 1210 1210 1210 1210 1211 1211 1212 1213 1214 1214 1214 1214 1215 1216 1218 1220 1222 1222 1223 1224 1225 1226 1227 1228 1230 1232 1234 1236 1238 1241 1243 1245 1247 1248 1250 1252 1254 1256 1259 1262 1264 1267
1274 1271 1268 1267 1266 1265 1262 1260 1258 1257 1257 1256 1255 1252 1251 1249 1247 1244 1242 1240 1238 1236 1233 1230 1228 1226 1224 1222 1220 1219 1220 1221 1222 1221 1220 1216 1211 1209 1210 1209 1209 1208 1207 1206 1207 1207 1207 1207 1207 1208 1209 1210 1210 1210 1210 1211 1212 1214 1216 1217 1218 1219 1220 1221 1222 1223 1225 1227 1228 1230 1232 1234 1237 1239 1241 1243 1245 1247 1249 1250 1252 1255 1257 1260 1262 1265
1271 1268 1266 1264 1263 1262 1260 1258 1256 1255 1254 1253 1252 1250 1247 1246 1244 1242 1239 1237 1235 1232 1230 1227 1225 1222 1219 1218 1216 1215 1215 1216 1217 1217 1216 1213 1209 1206 1206 1206 1206 1205 1203 1204 1204 1203 1204 1204 1205 1205 1206 1206 1206 1207 1207 1208 1210 1212 1213 1214 1215 1216 1217 1218 1220 1221 1223 1225 1227 1229 1231 1233 1235 1237 1239 1241 1243 1245 1247 1249 1251 1253 1256 1258 1261 1263
1268 1266 1263 1262 1261 1260 1259 1257 1255 1254 1252 1251 1249 1247 1245 1242 1241 1238 1236 1234 1232 1230 1227 1225 1222 1218 1215 1214 1213 1211 1210 1211 1212 1213 1212 1210 1206 1204 1203 1202 1202 1202 1202 1201 1201 1200 1201 1201 1202 1202 1202 1203 1203 1204 1205 1207 1208 1210 1211 1212 1212 1213 1215 1216 1218 1220 1222 1223 1226 1227 1230 1232 1234 1236 1238 1240 1242 1243 1245 1247 1249 1252 1254 1257 1259 1262
1266 1264 1262 1261 1260 1258 1257 1255 1253 1252 1250 1248 1247 1244 1242 1240 1237 1235 1232 1230 1229 1227 1225 1222 1219 1215 1213 1212 1210 1208 1207 1207 1208 1208 1208 1207 1204 1202 1200 1199 1199 1200 1200 1198 1198 1198 1198 1199 1199 1199 1199 1200 1201 1202 1203 1205 1206 1207 1208 1210 1211 1212 1213 1215 1217 1218 1220 1222 1224 1226 1228 1231 1232 1234 1236 1238 1240 1242 1243 1246 1248 1250 1253 1255 1258 1260
1263 1262 1260 1258 1256 1254 1252 1251 1249 1247 1245 1244 1243 1241 1240 1238 1235 1232 1229 1227 1226 1225 1223 1220 1216 1213 1210 1209 1207 1205 1205 1205 1204 1204 1204 1205 1203 1200 1197 1197 1197 1198 1197 1196 1196 1196 1196 1196 1196 1196 1197 1198 1200 1202 1202 1204 1205 1206 1207 1208 1209 1211 1212 1214 1215 1217 1219 1221 1223 1225 1227 1229 1231 1233 1235 1237 1238 1240 1242 1244 1247 1249 1252 1254 1257 1259
1259 1257 1255 1253 1251 1249 1247 1246 1244 1242 1240 1239 1238 1237 1237 1235 1233 1230 1227 1225 1225 1223 1221 1218 1215 1212 1209 1206 1204 1202 1202 1202 1201 1200 1202 1202 1201 1197 1195 1195 1195 1196 1195 1195 1194 1193 1194 1194 1194 1195 1196 1197 1199 1201 1202 1203 1204 1205 1206 1207 1208 1210 1211 1213 1214 1216 1218 1220 1222 1224 1226 1227 1229 1231 1233 1235 1237 1239 1241 1243 1246 1248 1251 1253 1255 1257
1254 1252 1250 1248 1247 1244 1242 1241 1239 1237 1236 1235 1235 1234 1234 1233 1232 1229 1226 1224 1223 1221 1218 1216 1214 1211 1208 1204 1202 1199 1198 1197 1197 1197 1199 1200 1198 1194 1192 1193 1193 1193 1193 1193 1192 1192 1192 1192 1192 1194 1195 1197 1198 1200 1201 1202 1203 1204 1205 1207 1208 1209 1210 1212 1213 1215 1217 1219 1221 1223 1224 1226 1228 1230 1232 1234 1236 1238 1240 1242 1245 1247 1249 1251 1253 1256
1249 1247 1245 1243 1242 1240 1238 1236 1235 1233 1233 1232 1232 1232 1232 1231 1229 1226 1223 1222 1221 1219 1216 1213 1211 1209 1207 1204 1201 1197 1194 1193 1193 1194 1196 1197 1194 1192 1191 1192 1192 1191 1191 1191 1191 1190 1190 1190 1191 1193 1194 1196 1197 1198 1199 1200 1202 1203 1204 1206 1207 1208 1210 1211 1213 1214 1216 1218 1220 1222 1223 1225 1227 1229 1231 1233 1235 1237 1239 1242 1244 1246 1248 1250 1252 1254
1245 1243 1241 1238 1237 1236 1234 1233 1231 1230 1229 1229 1228 1228 1227 1226 1224 1222 1221 1219 1218 1216 1214 1211 1209 1207 1206 1204 1201 1197 1192 1191 1191 1191 1192 1193 1192 1190 1190 1190 1189 1189 1188 1189 1189 1189 1188 1188 1190 1192 1193 1195 1196 1197 1198 1199 1200 1201 1202 1204 1205 1207 1209 1210 1212 1214 1216 1217 1219 1220 1222 1224 1226 1228 1230 1232 1235 1237 1239 1241 1243 1244 1246 1248 1250 1252
1242 1240 1238 1236 1234 1232 1231 1230 1228 1227 1226 1225 1224 1223 1222 1221 1220 1219 1217 1216 1214 1213 1211 1208 1206 1204 1203 1202 1200 1196 1192 1190 1190 1189 1190 1191 1189 1188 1188 1187 1187 1187 1186 1186 1187 1187 1187 1187 1188 1190 1192 1193 1195 1196 1197 1197 1198 1199 1201 1202 1203 1205 1207 1209 1211 1213 1215 1216 1218 1219 1221 1223 1225 1227 1230 1232 1234 1236 1238 1240 1242 1243 1245 1247 1249 1251
1241 1238 1236 1233 1232 1230 1228 1227 1226 1224 1223 1222 1221 1220 1219 1217 1216 1214 1213 1212 1210 1209 1207 1205 1203 1201 1199 1197 1196 1193 1190 1189 1188 1188 1188 1188 1187 1186 1185 1185 1185 1184 1184 1184 1185 1185 1185 1185 1186 1187 1190 1192 1193 1194 1195 1196 1197 1198 1199 1201 1202 1204 1206 1208 1210 1212 1213 1215 1217 1219 1221 1223 1225 1227 1229 1232 1233 1235 1237 1239 1241 1242 1243 1246 1247 1249
1238 1236 1233 1231 1229 1227 1226 1224 1223 1222 1220 1219 1218 1217 1215 1213 1212 1210 1209 1207 1206 1205 1203 1202 1200 1198 1196 1194 1191 1189 1187 1186 1186 1186 1186 1186 1185 1184 1183 1182 1182 1182 1182 1182 1182 1182 1183 1183 1183 1185 1187 1189 1191 1192 1194 1195 1196 1197 1199 1200 1202 1203 1205 1206 1208 1210 1212 1214 1216 1218 1220 1222 1224 1227 1229 1231 1233 1235 1237 1238 1240 1241 1243 1244 1246 1248
1236 1233 1231 1229 1227 1225 1223 1222 1220 1219 1217 1216 1215 1213 1212 1210 1208 1206 1204 1203 1202 1200 1199 1198 1197 1195 1193 1192 1189 1185 1183 1182 1183 1183 1183 1183 1182 1182 1181 1180 1179 1179 1180 1180 1180 1180 1181 1181 1182 1183 1184 1187 1189 1191 1192 1193 1195 1197 1198 1200 1201 1202 1204 1205 1207 1208 1211 1212 1215 1217 1219 1221 1223 1226 1228 1230 1232 1234 1236 1237 1239 1241 1242 1243 1245 1247
1234 1232 1229 1227 1226 1223 1221 1219 1217 1216 1214 1213 1211 1209 1208 1206 1204 1202 1201 1199 1197 1196 1195 1193 1192 1191 1190 1189 1186 1183 1180 1180 1180 1181 1180 1180 1179 1179 1178 1177 1177 1177 1177 1177 1178 1178 1179 1179 1180 1181 1182 1184 1186 1188 1190 1192 1194 1195 1197 1199 1200 1202 1203 1205 1206 1208 1210 1212 1214 1216 1218 1220 1222 1225 1227 1229 1231 1233 1235 1237 1238 1240 1241 1242 1244 1246
1233 1230 1228 1226 1224 1222 1219 1217 1215 1214 1212 1210 1207 1206 1204 1203 1201 1199 1197 1195 1194 1192 1191 1190 1188 1187 1186 1185 1183 1181 1179 1177 1177 1177 1177 1177 1177 1177 1176 1175 1175 1175 1175 1175 1175 1176 1177 1178 1179 1180 1181 1182 1183 1185 1188 1191 1193 1195 1196 1198 1200 1201 1203 1205 1206 1208 1209 1211 1213 1215 1217 1220 1222 1224 1227 1229 1231 1233 1235 1236 1238 1239 1241 1242 1243 1244
1232 1229 1226 1224 1222 1220 1218 1215 1213 1211 1209 1207 1205 1203 1201 1199 1197 1196 1194 1192 1191 1189 1188 1187 1185 1184 1183 1182 1180 1179 1177 1176 1175 1175 1175 1175 1174 1174 1174 1173 1173 1173 1173 1173 1173 1174 1174 1176 1177 1179 1180 1181 1182 1183 1186 1188 1191 1193 1195 1197 1199 1201 1202 1204 1206 1207 1209 1211 1213 1215 1217 1219 1221 1223 1226 1228 1230 1232 1233 1235 1237 1239 1241 1242 1243 1244
1230 1227 1225 1222 1221 1219 1216 1214 1211 1209 1207 1205 1203 1201 1199 1197 1195 1192 1191 1189 1188 1187 1186 1184 1183 1182 1180 1179 1178 1177 1175 1174 1174 1173 1173 1173 1173 1172 1172 1172 1172 1172 1172 1172 1172 1172 1173 1174 1175 1176 1177 1179 1181 1183 1185 1187 1189 1191 1193 1196 1198 1200 1202 1203 1205 1207 1209 1211 1212 1214 1217 1218 1221 1223 1225 1227 1228 1230 1232 1233 1235 1237 1239 1241 1243 1244
1229 1226 1223 1221 1219 1217 1215 1212 1210 1207 1205 1203 1201 1198 1196 1194 1192 1190 1188 1187 1187 1185 1184 1182 1181 1180 1178 1177 1176 1175 1174 1173 1172 1172 1172 1171 1171 1171 1171 1171 1171 1171 1171 1171 1171 1172 1173 1173 1174 1175 1176 1177 1179 1182 1184 1187 1188 1190 1192 1195 1197 1199 1201 1202 1204 1206 1208 1210 1212 1213 1216 1218 1220 1222 1224 1226 1227 1228 1230 1231 1233 1235 1237 1238 1240 1242
1227 1225 1222 1219 1217 1215 1213 1210 1208 1206 1203 1201 1198 1196 1194 1192 1190 1188 1187 1186 1185 1184 1183 1181 1180 1178 1177 1176 1175 1174 1173 1172 1171 1171 1170 1170 1170 1170 1170 1170 1170 1170 1170 1171 1171 1172 1173 1174 1175 1176 1177 1177 1178 1181 1183 1186 1188 1190 1192 1193 1195 1197 1199 1202 1203 1205 1207 1209 1211 1213 1215 1217 1219 1221 1223 1225 1226 1228 1229 1231 1232 1234 1235 1237 1238 1239
1226 1223 1220 1217 1215 1212 1210 1208 1206 1203 1201 1199 1197 1194 1192 1190 1188 1187 1185 1184 1183 1183 1182 1181 1179 1178 1176 1175 1174 1173 1172 1171 1170 1170 1169 1169 1169 1169 1170 1170 1170 1171 1171 1171 1172 1173 1174 1175 1175 1176 1176 1177 1178 1180 1183 1185 1188 1190 1192 1193 1195 1197 1199 1201 1202 1204 1206 1208 1210 1212 1214 1216 1218 1220 1222 1223 1225 1227 1228 1230 1232 1233 1234 1236 1237 1238
1225 1222 1219 1216 1213 1211 1208 1206 1203 1202 1199 1197 1195 1192 1191 1189 1188 1186 1185 1183 1182 1182 1181 1180 1178 1177 1176 1175 1173 1172 1171 1171 1170 1169 1169 1169 1169 1170 1170 1171 1171 1171 1172 1172 1172 1173 1175 1176 1177 1177 1177 1178 1179 1180 1182 1185 1187 1190 1191 1193 1195 1197 1198 1200 1202 1203 1205 1207 1209 1211 1213 1215 1217 1218 1220 1222 1224 1225 1227 1228 1230 1231 1233 1234 1236 1237
1223 1220 1217 1214 1211 1209 1206 1204 1202 1200 1198 1196 1193 1191 1189 1188 1187 1186 1184 1183 1182 1181 1180 1179 1178 1177 1176 1174 1173 1172 1171 1170 1170 1169 1169 1169 1170 1170 1171 1171 1172 1172 1172 1172 1173 1174 1176 1176 1177 1178 1179 1180 1181 1182 1183 1185 1187 1189 1191 1193 1195 1196 1197 1199 1201 1202 1204 1206 1208 1210 1212 1214 1215 1217 1219 1221 1222 1224 1225 1227 1228 1229 1231 1232 1233 1235
1222 1218 1216 1213 1210 1207 1205 1203 1201 1198 1197 1194 1192 1190 1188 1187 1186 1185 1184 1182 1182 1181 1180 1179 1178 1177 1176 1174 1173 1172 1171 1171 1170 1170 1170 1170 1170 1171 1171 1172 1172 1173 1173 1174 1175 1176 1176 1176 1177 1178 1179 1181 1182 1184 1185 1187 1188 1189 1191 1193 1195 1197 1198 1200 1201 1202 1204 1206 1207 1209 1211 1212 1214 1216 1217 1219 1220 1222 1223 1225 1226 1227 1229 1230 1232 1233
1220 1217 1214 1212 1209 1207 1204 1202 1200 1197 1195 1193 1191 1189 1187 1186 1185 1184 1183 1182 1181 1180 1179 1178 1177 1177 1176 1174 1173 1172 1172 1171 1171 1170 1171 1171 1171 1171 1172 1172 1173 1174 1175 1175 1176 1177 1177 1177 1177 1178 1179 1181 1183 1185 1186 1187 1188 1190 1191 1192 1194 1196 1198 1200 1201 1202 1204 1205 1207 1208 1210 1211 1213 1214 1216 1217 1219 1220 1222 1223 1224 1226 1227 1228 1230 1231
1219 1216 1213 1210 1207 1205 1202 1200 1198 1196 1193 1191 1189 1188 1187 1185 1184 1183 1182 1182 1181 1180 1179 1178 1177 1177 1176 1175 1174 1173 1172 1172 1171 1171 1172 1172 1172 1172 1172 1173 1173 1174 1174 1175 1176 1177 1177 1178 1179 1180 1181 1182 1183 1185 1187 1188 1189 1190 1191 1192 1194 1196 1197 1199 1200 1202 1203 1205 1206 1207 1208 1210 1212 1213 1214 1216 1217 1218 1220 1221 1222 1224 1225 1227 1228 1229
1218 1215 1212 1209 1206 1204 1201 1199 1197 1195 1192 1190 1188 1187 1186 1185 1184 1183 1182 1181 1180 1180 1179 1178 1177 1177 1176 1175 1174 1173 1173 1172 1172 1172 1172 1173 1173 1173 1174 1174 1174 1175 1175 1176 1176 1177 1178 1179 1180 1182 1183 1184 1184 1185 1186 1188 1189 1191 1192 1193 1194 1196 1197 1199 1200 1201 1202 1204 1205 1206 1208 1209 1210 1212 1213 1214 1216 1217 1218 1220 1221 1222 1224 1225 1226 1228
1217 1214 1211 1208 1205 1202 1200 1198 1196 1194 1192 1189 1187 1186 1185 1184 1184 1183 1182 1181 1180 1179 1179 1178 1177 1177 1176 1175 1175 1174 1174 1173 1173 1173 1173 1174 1174 1174 1175 1175 1176 1176 1177 1177 1177 1178 1179 1180 1181 1182 1183 1185 1186 1186 1187 1188 1189 1191 1192 1193 1195 1196 1197 1198 1199 1201 1202 1203 1204 1205 1207 1208 1209 1210 1212 1213 1214 1215 1217 1218 1219 1221 1222 1223 1225 1226
1215 1212 1210 1207 1204 1202 1199 1197 1195 1193 1191 1189 1187 1186 1185 1184 1183 1182 1182 1181 1180 1179 1179 1178 1177 1177 1176 1176 1175 1175 1175 1175 1175 1175 1175 1175 1175 1175 1176 1176 1177 1177 1177 1178 1179 1179 1180 1181 1182 1183 1184 1185 1186 1187 1188 1189 1190 1191 1192 1193 1195 1196 1197 1198 1199 1200 1201 1202 1203 1205 1206 1207 1208 1209 1211 1212 1213 1214 1215 1217 1218 1220 1221 1222 1223 1225
1213 1211 1208 1206 1203 1201 1198 1196 1194 1192 1190 1188 1187 1186 1184 1183 1182 1182 1182 1181 1180 1180 1179 1178 1178 1177 1177 1176 1176 1176 1176 1176 1176 1176 1176 1176 1176 1177 1177 1177 1178 1178 1179 1179 1180 1180 1181 1182 1183 1184 1185 1185 1186 1187 1188 1189 1190 1191 1192 1193 1194 1196 1197 1197 1198 1200 1201 1202 1203 1204 1205 1206 1207 1208 1209 1211 1212 1213 1214 1216 1217 1218 1220 1221 1222 1224